Caro, MI

3:50 AM EST on December 06, 2019 (GMT -0500)
Caro

Weather History for KCFS - July, 2019

Change the Weather History Date:

Wednesday, July 17, 2019

  Actual Average (WUND) Record (WUND)
Temperature  
Mean Temperature 76 °F -  
Max Temperature 85 °F - - (-1)
Min Temperature 67 °F - - (-1)
Cooling Degree Days 12    
Growing Degree Days 26 (Base 50)    
Moisture  
Dew Point 66 °F    
Average Humidity 72    
Maximum Humidity 98    
Minimum Humidity 46    
Precipitation  
Precipitation 0.00 in - - ()
Sea Level Pressure  
Sea Level Pressure 29.92 in    
Wind  
Wind Speed 2 mph (NNE)    
Max Wind Speed 8 mph    
Max Gust Speed -    
Visibility 9 miles    
Events      
Averages and records for this station are not official NWS values.
T = Trace of Precipitation, MM = Missing Value Source: NWS Daily Summary

Daily Weather History Graph

Daily Weather History Graph

Search for Another Location

Airport or City:

Astronomy

Jul. 17, 2019 Rise Set
Actual Time 6:08 AM EDT 9:11 PM EDT
Civil Twilight 5:34 AM EDT 9:45 PM EDT
Nautical Twilight 4:50 AM EDT 10:29 PM EDT
Astronomical Twilight 3:57 AM EDT 11:20 PM EDT
Moon 9:58 PM EDT (7/17) 6:39 AM EDT (7/17)
Length of Visible Light 16h 11m
Length of Day
15h 02m
Waxing Gibbous, 99% of the Moon is Illuminated
Jul 17
Waxing Gibbous
Jul 24
Last Quarter
Jul 31
New
Aug 7
First Quarter
Aug 15
Full

Hourly Weather History & Observations

Time (EDT) Temp. Heat Index Dew Point Humidity Pressure Visibility Wind Dir Wind Speed Gust Speed Precip Events Conditions
12:15 AM 72.5 °F - 70.9 °F 95% 29.90 in 7.0 mi Calm Calm - N/A   Clear
12:35 AM 72.0 °F - 70.7 °F 96% 29.89 in 10.0 mi Calm Calm - N/A   Clear
12:58 AM 72.3 °F - 70.7 °F 95% 29.89 in 7.0 mi Calm Calm - N/A   Clear
1:35 AM 71.4 °F - 70.3 °F 96% 29.89 in 5.0 mi Calm Calm - N/A   Clear
1:55 AM 70.7 °F - 69.6 °F 96% 29.89 in 2.5 mi Calm Calm - N/A   Clear
2:19 AM 70.0 °F - 69.1 °F 97% 29.89 in 7.0 mi Calm Calm - N/A   Clear
2:37 AM 70.0 °F - 69.3 °F 98% 29.89 in 5.0 mi Calm Calm - N/A   Scattered Clouds
2:55 AM 70.7 °F - 69.8 °F 97% 29.89 in 7.0 mi SW 3.5 mph - N/A   Mostly Cloudy
2:56 AM 70.7 °F - 69.8 °F 97% 29.89 in 7.0 mi SW 3.5 mph - N/A   Mostly Cloudy
3:15 AM 71.1 °F - 70.2 °F 97% 29.89 in 10.0 mi Calm Calm - N/A   Overcast
3:16 AM 71.1 °F - 70.2 °F 97% 29.89 in 10.0 mi Calm Calm - N/A   Overcast
3:35 AM 71.2 °F - 70.2 °F 96% 29.88 in 10.0 mi Calm Calm - N/A   Overcast
3:58 AM 71.4 °F - 70.2 °F 96% 29.88 in 10.0 mi Calm Calm - N/A   Overcast
4:16 AM 71.6 °F - 70.2 °F 95% 29.88 in 7.0 mi Calm Calm - N/A   Mostly Cloudy
4:35 AM 72.0 °F - 70.7 °F 96% 29.87 in 7.0 mi Calm Calm - N/A   Scattered Clouds
4:36 AM 72.0 °F - 70.7 °F 96% 29.87 in 10.0 mi Calm Calm - N/A   Scattered Clouds
4:55 AM 71.6 °F - 70.2 °F 95% 29.88 in 7.0 mi Calm Calm - N/A   Scattered Clouds
5:19 AM 71.6 °F - 70.5 °F 96% 29.89 in 7.0 mi Calm Calm - N/A   Overcast
5:37 AM 71.8 °F - 70.7 °F 96% 29.88 in 5.0 mi Calm Calm - N/A   Overcast
5:55 AM 72.7 °F - 71.1 °F 95% 29.89 in 7.0 mi North 3.5 mph - N/A   Overcast
5:56 AM 72.5 °F - 70.9 °F 95% 29.89 in 7.0 mi North 3.5 mph - N/A   Overcast
6:15 AM 72.0 °F - 70.9 °F 96% 29.89 in 7.0 mi Calm Calm - N/A   Overcast
6:35 AM 72.7 °F - 71.2 °F 95% 29.90 in 4.0 mi North 4.6 mph - N/A   Overcast
6:58 AM 72.0 °F - 70.7 °F 96% 29.90 in 4.0 mi Calm Calm - N/A   Mostly Cloudy
7:16 AM 71.6 °F - 69.6 °F 93% 29.90 in 5.0 mi Calm Calm - N/A   Scattered Clouds
7:35 AM 71.8 °F - 69.1 °F 91% 29.90 in 10.0 mi Calm Calm - N/A   Mostly Cloudy
7:36 AM 71.8 °F - 69.1 °F 91% 29.90 in 10.0 mi NNE 3.5 mph - N/A   Mostly Cloudy
7:55 AM 72.0 °F - 68.5 °F 89% 29.91 in 10.0 mi Calm Calm - N/A   Scattered Clouds
8:19 AM 72.9 °F - 68.7 °F 87% 29.91 in 10.0 mi NE 3.5 mph - N/A   Scattered Clouds
8:37 AM 74.8 °F - 69.1 °F 82% 29.92 in 10.0 mi Calm Calm - N/A   Scattered Clouds
8:55 AM 75.6 °F - 68.7 °F 79% 29.91 in 10.0 mi Calm Calm - N/A   Scattered Clouds
8:56 AM 75.6 °F - 68.7 °F 79% 29.91 in 10.0 mi Calm Calm - N/A   Scattered Clouds
9:15 AM 76.3 °F - 66.4 °F 71% 29.92 in 10.0 mi Calm Calm - N/A   Clear
9:16 AM 76.3 °F - 66.4 °F 71% 29.92 in 10.0 mi NNE 3.5 mph - N/A   Clear
9:35 AM 77.2 °F - 66.7 °F 70% 29.93 in 10.0 mi North 4.6 mph - N/A   Clear
9:58 AM 77.4 °F - 66.2 °F 68% 29.92 in 10.0 mi Calm Calm - N/A   Clear
10:16 AM 77.5 °F - 66.4 °F 68% 29.92 in 10.0 mi NNE 3.5 mph - N/A   Clear
10:35 AM 78.3 °F - 67.1 °F 68% 29.91 in 10.0 mi ENE 6.9 mph - N/A   Clear
10:36 AM 78.4 °F - 67.1 °F 68% 29.91 in 10.0 mi NE 5.8 mph - N/A   Clear
10:55 AM 79.3 °F - 67.1 °F 66% 29.91 in 10.0 mi Calm Calm - N/A   Clear
11:19 AM 79.9 °F - 66.0 °F 62% 29.92 in 10.0 mi NE 4.6 mph - N/A   Clear
11:37 AM 80.4 °F 82.6 °F 66.2 °F 62% 29.93 in 10.0 mi NE 3.5 mph - N/A   Clear
11:55 AM - - - N/A% - - North - - N/A   Unknown
11:56 AM - - - N/A% - - North - - N/A   Unknown
12:15 PM - - - N/A% - - North - - N/A   Unknown
12:16 PM - - - N/A% - - North - - N/A   Unknown
12:35 PM 85.1 °F 87.4 °F 66.0 °F 53% 29.94 in 10.0 mi North 4.6 mph - N/A   Clear
12:58 PM 85.3 °F 87.9 °F 67.1 °F 54% 29.95 in 10.0 mi NNE 3.5 mph - N/A   Scattered Clouds
1:16 PM 84.7 °F 86.6 °F 65.5 °F 52% 29.95 in 10.0 mi North 6.9 mph - N/A   Mostly Cloudy
1:35 PM 84.2 °F 86.1 °F 65.5 °F 53% 29.95 in 10.0 mi NNE 5.8 mph - N/A   Mostly Cloudy
1:36 PM 84.0 °F 85.8 °F 65.3 °F 53% 29.95 in 10.0 mi NNE 4.6 mph - N/A   Mostly Cloudy
1:55 PM 84.2 °F 86.8 °F 66.7 °F 56% 29.95 in 10.0 mi NNE 6.9 mph - N/A   Scattered Clouds
2:19 PM 84.4 °F 87.3 °F 67.5 °F 57% 29.95 in 10.0 mi North 3.5 mph - N/A   Clear
2:37 PM 84.2 °F 86.6 °F 66.6 °F 55% 29.94 in 10.0 mi North 4.6 mph - N/A   Clear
2:55 PM 84.7 °F 87.4 °F 66.9 °F 55% 29.94 in 10.0 mi North 4.6 mph - N/A   Clear
2:56 PM 84.7 °F 87.1 °F 66.4 °F 54% 29.94 in 10.0 mi North 4.6 mph - N/A   Clear
3:15 PM 84.9 °F 87.4 °F 66.4 °F 54% 29.94 in 10.0 mi North 6.9 mph - N/A   Clear
3:16 PM 84.7 °F 87.1 °F 66.2 °F 54% 29.94 in 10.0 mi North 8.1 mph - N/A   Clear
3:35 PM 84.9 °F 87.1 °F 66.2 °F 53% 29.94 in 10.0 mi North 8.1 mph - N/A   Clear
3:58 PM 85.1 °F 87.7 °F 66.7 °F 54% 29.93 in 10.0 mi NNW 6.9 mph - N/A   Clear
4:16 PM 85.3 °F 87.1 °F 65.5 °F 51% 29.93 in 10.0 mi NNE 4.6 mph - N/A   Clear
4:35 PM 84.6 °F 85.2 °F 62.1 °F 47% 29.93 in 10.0 mi North 8.1 mph - N/A   Clear
4:36 PM 84.4 °F 85.0 °F 62.1 °F 47% 29.93 in 10.0 mi NNW 8.1 mph - N/A   Clear
4:55 PM 84.6 °F 85.2 °F 62.4 °F 47% 29.92 in 10.0 mi North 6.9 mph - N/A   Clear
4:56 PM 84.6 °F 85.2 °F 62.1 °F 47% 29.92 in 10.0 mi North 5.8 mph - N/A   Clear
5:19 PM 84.4 °F 84.8 °F 61.5 °F 46% 29.92 in 10.0 mi North 5.8 mph - N/A   Clear
5:36 PM 83.7 °F 83.9 °F 61.0 °F 46% 29.93 in 10.0 mi North 5.8 mph - N/A   Clear
5:55 PM 82.9 °F 83.7 °F 61.9 °F 49% 29.92 in 10.0 mi North 4.6 mph - N/A   Clear
5:56 PM 82.8 °F 83.4 °F 61.9 °F 49% 29.92 in 10.0 mi North 3.5 mph - N/A   Clear
6:15 PM 82.0 °F 83.0 °F 62.4 °F 51% 29.92 in 10.0 mi North 3.5 mph - N/A   Clear
6:16 PM 82.0 °F 83.0 °F 62.4 °F 51% 29.92 in 10.0 mi North 3.5 mph - N/A   Clear
6:35 PM 81.1 °F 82.3 °F 62.6 °F 53% 29.92 in 10.0 mi North 3.5 mph - N/A   Clear
6:58 PM 81.0 °F 82.2 °F 63.1 °F 54% 29.92 in 10.0 mi NNE 4.6 mph - N/A   Clear
7:16 PM 80.4 °F 81.6 °F 62.2 °F 54% 29.93 in 10.0 mi North 5.8 mph - N/A   Clear
7:35 PM 78.8 °F - 63.5 °F 59% 29.93 in 10.0 mi North 3.5 mph - N/A   Clear
7:36 PM 78.6 °F - 63.5 °F 60% 29.93 in 10.0 mi North 3.5 mph - N/A   Clear
7:55 PM 77.5 °F - 62.4 °F 59% 29.94 in 10.0 mi North 3.5 mph - N/A   Clear
7:56 PM 77.5 °F - 62.6 °F 60% 29.94 in 10.0 mi Calm Calm - N/A   Clear
8:19 PM 77.5 °F - 62.8 °F 60% 29.95 in 10.0 mi Calm Calm - N/A   Clear
8:37 PM 76.8 °F - 62.2 °F 61% 29.95 in 10.0 mi NE 4.6 mph - N/A   Clear
8:55 PM 75.6 °F - 62.4 °F 64% 29.95 in 10.0 mi Calm Calm - N/A   Clear
9:15 PM 74.5 °F - 61.7 °F 64% 29.94 in 10.0 mi ENE 4.6 mph - N/A   Clear
9:35 PM 73.4 °F - 61.9 °F 67% 29.94 in 10.0 mi NE 3.5 mph - N/A   Clear
9:40 PM 73.4 °F - 62.1 °F 68% 29.95 in 10.0 mi ENE 3.5 mph - N/A   Clear
9:58 PM 72.5 °F - 62.6 °F 71% 29.95 in 10.0 mi NE 3.5 mph - N/A   Clear
10:16 PM 72.0 °F - 62.4 °F 72% 29.95 in 10.0 mi ENE 4.6 mph - N/A   Clear
10:35 PM 71.4 °F - 62.6 °F 74% 29.95 in 10.0 mi ENE 4.6 mph - N/A   Clear
10:36 PM 71.2 °F - 62.6 °F 74% 29.95 in 10.0 mi ENE 4.6 mph - N/A   Clear
10:55 PM 70.7 °F - 62.6 °F 75% 29.96 in 10.0 mi Calm Calm - N/A   Clear
10:56 PM 70.7 °F - 62.6 °F 75% 29.96 in 10.0 mi Calm Calm - N/A   Clear
11:19 PM 68.4 °F - 62.6 °F 82% 29.95 in 10.0 mi East 3.5 mph - N/A   Clear
11:37 PM 68.2 °F - 62.6 °F 82% 29.95 in 10.0 mi Calm Calm - N/A   Clear
11:55 PM 67.6 °F - 62.6 °F 84% 29.95 in 10.0 mi Calm Calm - N/A   Clear